カタログに戻る

STARLINK-38061

運用中通信SSO
NORAD 69715·PAYLOAD·🇺🇸 United States

打ち上げ Jun 28, 2026 から Vandenberg Space Force Base

Loading…

次のパス (今後24時間)

TLE

最新Source: CelesTrak SupGP

元期: Sep 15, 2026, 04:15 UTC

1 69715C 26147M   26258.17756944 -.00046708  00000+0 -14500-2 0  2580
2 69715  97.2834 294.6098 0001301  86.8635  64.5726 15.33460956    15

AllMySatでSTARLINK-38061をリアルタイム追跡

Download on the App Store